Location: St. Louis
(38.6270°N, 90.1994°W)
Time: 09:55:16
(UTC-06:00)

Vanguard 2 Rocket - Pass Details

Date: 07 December 2021
Orbit: 553 x 3325 km, 32.9° (Epoch: 23 January)

Event Time Altitude Azimuth Distance (km) Brightness Sun altitude
Rises 15:01:32 0° 200° (SSW) 2,712 10.6 14.4°
Reaches altitude 10° 15:05:16 10° 161° (SSE) 1,949 9.0 13.9°
Maximum altitude 15:06:31 11° 144° (SE) 1,953 8.8 13.7°
Drops below altitude 10° 15:07:50 10° 127° (SE) 2,119 8.8 13.5°
Sets 15:12:37 0° 93° (E) 3,499 9.5 12.8°
